GFSMW_700_spd_060.txt.gz
Wind_Speed
12 14 16 17 17 17 16 15 14 13 10 7 4 3 3 5 7 9 10 12 14 15 14 16 17 17 19 22 26 29 31 33 36 37 38 38 38 39 43 45 44 43 43
15 16 16 15 14 14 13 13 10 9 8 6 7 7 8 8 10 10 10 13 15 14 15 17 19 20 23 26 29 32 35 34 38 39 38 39 40 44 49 46 47 45 44
13 14 12 11 12 11 9 10 9 9 8 10 12 12 11 10 10 9 11 14 16 16 18 21 23 25 27 30 32 32 30 33 38 40 36 39 43 49 44 45 47 47 45
15 14 11 11 8 9 11 12 13 10 11 15 17 15 14 14 14 13 14 17 18 20 21 24 26 28 31 33 35 37 38 36 39 42 38 41 44 47 49 50 51 48 45
14 13 9 6 9 8 8 10 11 11 12 16 18 17 17 17 21 18 16 17 19 22 24 28 30 33 36 40 43 34 35 40 42 45 46 49 46 46 49 52 50 48 46
19 16 15 14 13 13 16 14 13 13 14 15 14 17 20 23 22 19 17 19 23 26 28 31 34 35 42 49 49 36 45 38 43 47 48 47 47 48 49 48 46 47 45
22 21 18 16 16 14 14 17 20 12 15 15 14 16 20 23 21 19 20 24 27 29 33 36 32 38 45 48 44 51 46 46 46 47 42 46 46 45 42 43 44 45 45
16 21 19 17 14 20 14 15 21 16 17 20 17 20 18 19 22 21 23 27 30 30 32 27 40 34 31 35 45 52 47 47 52 44 45 41 39 38 38 41 43 45 45
12 14 16 16 14 14 16 19 20 20 21 21 23 22 18 20 22 24 27 31 24 27 36 36 37 40 47 41 44 47 47 46 44 42 39 35 35 38 40 42 43 43 44
8 10 9 12 11 12 15 19 20 22 25 28 24 21 20 21 23 23 26 27 28 30 30 30 39 38 41 42 45 47 43 41 39 35 33 36 39 41 44 44 43 42 42
6 8 11 14 12 13 16 17 21 23 25 23 21 20 20 20 21 24 26 27 29 37 31 32 36 42 46 43 47 44 41 35 32 32 35 38 41 42 43 42 41 40 39
5 5 5 6 7 9 11 11 13 14 14 15 16 16 20 21 24 23 25 38 28 32 38 34 41 46 45 49 40 39 34 31 32 33 36 38 40 41 41 41 40 39 38
11 7 7 9 9 10 12 16 18 20 18 17 19 22 21 27 29 19 26 28 32 35 35 44 36 46 53 42 36 32 29 32 32 34 37 39 41 41 41 41 39 38 37
15 14 13 14 15 15 18 20 23 23 25 26 28 30 32 35 41 26 30 31 37 36 32 45 49 48 41 39 34 30 32 32 34 36 39 40 42 42 41 39 38 37 37
18 18 17 18 18 21 23 24 25 25 26 28 27 30 32 40 25 31 40 44 35 45 47 52 40 42 40 33 29 32 33 34 36 39 41 42 43 42 40 39 37 37 37
20 21 21 21 22 23 25 26 25 26 27 26 25 26 27 32 37 38 33 43 46 48 48 44 45 38 33 29 31 34 35 37 40 41 42 43 44 42 40 38 37 36 35
22 21 19 19 21 22 23 24 23 23 23 23 25 25 29 31 35 38 35 42 49 36 39 43 40 33 30 31 34 36 39 41 43 44 44 45 44 42 39 37 36 35 34
15 17 19 21 21 21 20 19 21 22 24 22 24 27 29 33 35 43 45 37 37 46 42 34 34 32 31 34 37 40 43 45 46 46 46 46 45 42 39 36 35 33 33
17 19 20 20 20 20 21 23 26 23 22 24 24 27 33 36 39 35 35 42 45 40 37 36 33 34 35 38 41 43 46 48 49 48 48 47 45 40 38 36 34 33 31
17 18 19 20 21 21 21 20 21 21 22 26 28 29 34 30 32 41 44 42 37 38 37 35 36 38 41 42 44 46 49 51 51 50 49 46 44 39 36 35 33 32 30
20 20 21 20 19 19 19 19 21 21 22 25 29 27 35 41 41 41 37 37 37 37 37 40 41 44 46 48 50 51 53 53 52 52 49 44 39 37 34 34 32 31 30
21 22 21 21 21 22 23 22 21 22 21 29 35 35 37 36 33 34 35 36 38 40 42 45 47 49 51 53 54 54 54 53 52 51 46 40 34 34 33 33 31 30 30
22 22 23 24 26 24 25 25 22 25 33 36 33 32 31 32 34 36 37 38 41 44 48 51 53 54 56 57 57 55 52 50 49 45 41 36 33 31 32 32 30 29 30
23 24 25 27 25 26 27 23 29 34 34 28 29 30 31 32 33 36 39 43 45 48 52 55 58 61 62 62 61 60 56 50 41 41 43 42 38 32 31 30 30 28 28
24 24 26 24 27 25 26 34 33 26 26 27 29 30 31 34 36 39 42 45 47 52 56 58 61 62 63 59 56 53 52 50 42 36 38 40 35 28 26 27 26 27 27
25 24 25 26 28 31 32 26 24 25 26 27 28 31 34 37 40 43 44 47 50 53 56 57 57 56 53 51 49 45 43 40 35 30 37 30 24 24 24 25 24 26 27

GFSMW_700_spd_063.txt.gz
Wind_Speed
14 15 15 15 15 16 16 15 14 14 14 13 11 10 9 10 10 10 11 12 11 12 14 12 14 17 16 18 21 23 25 28 31 30 28 30 34 37 36 37 39 43 43
15 20 22 22 19 17 16 16 16 15 13 13 12 11 11 9 9 10 11 12 12 13 14 15 19 19 21 22 24 26 29 31 32 32 35 42 44 39 39 42 45 45 45
13 16 18 17 17 16 16 15 14 14 13 12 11 11 10 9 8 9 13 16 15 15 16 19 21 22 22 24 26 31 36 38 38 39 32 39 43 43 42 41 41 45 45
16 15 14 13 12 13 14 14 14 14 14 14 14 14 14 13 12 13 19 20 16 16 19 21 23 24 25 27 30 33 36 43 46 48 42 37 41 48 48 45 43 45 45
20 16 15 15 13 15 14 14 15 16 17 17 16 17 19 18 17 20 21 22 18 17 21 23 25 27 28 30 35 37 41 38 39 39 49 42 42 43 43 45 44 43 40
21 19 19 18 17 18 17 15 14 17 18 19 18 16 17 18 21 22 25 24 21 20 23 27 29 30 32 35 40 36 31 34 35 42 47 43 43 44 42 39 37 38 39
23 23 21 20 21 21 19 18 16 16 13 23 20 15 14 15 21 23 28 25 23 22 25 28 30 29 31 31 40 31 39 34 37 43 45 44 40 37 34 34 36 40 41
20 22 23 23 20 16 20 18 11 13 18 15 17 21 18 23 21 25 25 23 24 23 22 16 24 31 29 31 32 40 42 36 43 41 39 38 34 31 31 35 38 41 42
12 16 18 19 19 18 18 20 18 16 20 23 20 20 22 22 21 22 22 22 23 25 27 27 32 37 30 33 31 38 42 39 43 39 35 30 30 31 33 35 37 41 43
9 12 13 15 15 15 16 18 19 19 21 24 25 24 23 22 21 23 23 21 18 27 32 28 30 31 31 31 30 34 38 51 37 33 31 29 31 32 34 36 38 40 42
3 8 12 12 13 16 19 21 21 21 22 23 23 21 21 21 21 20 22 24 26 27 36 36 28 34 35 38 41 35 41 38 35 31 30 30 32 33 35 37 39 39 40
8 6 6 9 9 8 11 15 17 17 18 18 14 16 17 14 17 19 22 26 26 27 25 36 29 36 30 29 42 46 38 38 34 30 30 32 34 35 37 39 39 40 40
11 10 7 7 7 9 10 10 12 14 17 19 22 22 22 22 23 25 27 30 25 26 34 38 34 34 31 41 42 42 39 36 33 31 33 34 36 37 39 40 40 40 40
14 15 14 15 13 12 11 13 17 19 20 22 24 24 24 26 28 32 23 38 32 27 40 37 36 39 41 37 42 37 35 33 31 33 35 37 38 40 41 42 41 40 39
16 19 19 19 18 17 17 19 21 22 23 24 24 24 25 26 27 25 33 33 28 30 36 34 37 38 39 42 38 35 32 32 34 35 38 40 41 42 42 42 41 40 38
18 19 22 23 22 22 23 23 24 26 28 28 28 29 29 28 24 21 35 33 43 33 38 35 33 43 38 34 32 31 33 34 37 38 41 43 44 44 43 42 41 40 38
25 23 22 22 21 23 23 24 25 26 28 27 26 26 26 23 22 28 30 38 35 37 29 38 40 38 34 31 32 32 35 38 41 43 45 46 46 46 44 43 42 40 37
19 18 17 18 20 21 21 22 22 23 24 26 27 26 22 21 29 31 33 35 30 33 40 38 34 34 31 31 33 35 39 43 45 47 49 49 49 48 45 44 44 39 36
15 16 18 18 19 21 23 23 24 25 27 26 23 24 22 26 30 33 28 33 38 38 34 34 33 34 33 34 37 40 44 48 50 51 51 52 51 48 44 45 42 38 35
16 18 18 19 21 21 21 22 22 23 24 24 21 25 21 25 24 31 39 38 36 34 34 33 34 36 38 40 43 46 50 53 54 55 55 54 51 47 44 43 40 35 30
16 17 19 19 19 19 19 20 21 22 21 20 21 22 23 30 34 33 31 30 32 32 33 36 38 40 43 46 48 51 54 57 58 59 58 55 50 44 40 39 36 30 29
16 18 19 19 19 18 18 20 20 19 20 17 20 27 31 29 26 27 28 30 32 35 38 40 42 44 47 49 51 54 57 58 58 58 55 51 46 37 35 36 32 28 29
18 19 20 20 20 20 21 19 20 20 18 23 30 28 25 26 27 28 30 32 35 38 41 44 46 49 52 54 57 59 59 57 54 52 49 44 39 35 33 40 37 30 29
20 20 20 20 20 21 20 22 22 21 26 30 24 24 25 27 28 30 33 36 39 41 44 47 51 53 55 58 58 57 56 54 52 48 45 40 35 35 31 29 32 28 27
21 21 20 20 22 22 24 24 24 29 28 23 24 25 25 27 30 32 35 38 41 44 47 51 53 55 57 57 56 55 54 52 48 45 41 35 29 24 34 33 25 21 25
23 22 22 23 22 24 26 29 31 24 23 24 24 26 28 31 33 35 37 39 42 45 48 50 53 54 54 54 54 53 51 46 38 34 26 25 22 22 20 19 19 20 22

GFSMW_700_spd_066.txt.gz
Wind_Speed
8 11 15 16 15 15 16 17 17 17 18 17 15 13 12 13 15 16 17 17 18 16 15 16 16 16 17 17 17 18 19 22 24 27 33 36 36 35 33 36 34 38 41
14 14 16 17 17 18 18 18 17 16 15 14 14 14 14 13 14 17 18 17 17 17 19 17 18 18 18 19 19 21 23 25 27 30 38 38 42 46 39 38 40 42 39
15 16 16 16 18 19 18 17 17 16 16 16 17 16 15 15 13 13 16 16 18 22 21 18 18 19 20 20 22 23 24 29 33 36 34 30 32 39 41 41 40 39 41
17 20 21 17 16 17 18 19 18 18 19 19 18 18 16 16 15 15 16 18 22 25 22 18 20 21 21 23 24 26 28 30 33 38 30 31 33 35 39 42 45 45 36
17 19 19 21 19 19 19 19 20 20 20 20 20 19 20 21 22 21 23 23 24 24 24 20 20 22 24 25 26 28 29 31 36 31 34 32 35 38 39 40 39 38 39
22 20 19 22 22 21 21 21 20 20 19 19 21 20 20 22 26 24 25 27 28 28 26 24 22 24 25 30 31 27 30 35 36 33 34 33 38 37 40 41 38 36 34
29 26 26 24 22 24 24 23 21 17 16 17 19 22 22 23 24 23 25 30 30 30 27 25 26 25 26 27 27 30 27 36 34 36 35 37 40 38 38 36 35 34 31
24 32 29 26 25 24 25 24 21 21 18 19 21 19 29 27 25 28 30 32 30 30 26 30 28 31 27 27 32 31 24 25 30 30 34 39 38 38 36 34 33 33 32
22 28 30 30 29 27 24 22 22 19 17 16 22 25 20 22 22 29 32 34 30 29 29 29 30 33 36 31 33 34 32 31 34 40 38 38 39 37 34 32 32 34 37
14 20 28 30 31 30 30 29 29 29 28 29 26 26 28 28 28 27 27 31 29 28 26 27 30 34 37 26 27 28 24 34 40 42 40 39 37 34 32 33 33 35 38
0 10 17 20 23 28 30 27 27 28 27 27 25 27 27 28 28 27 27 26 27 29 33 35 34 38 33 41 34 28 33 34 40 40 39 37 34 32 33 34 35 37 39
9 7 6 14 20 23 26 27 28 29 27 28 27 27 25 22 22 21 26 24 27 34 38 41 32 35 33 43 37 30 38 39 38 37 37 34 31 32 34 35 38 40 41
10 9 9 10 12 14 14 16 19 21 24 24 24 22 23 24 26 24 25 26 33 34 21 17 25 28 39 30 36 40 37 38 36 34 33 30 32 34 36 38 40 43 43
13 13 13 14 16 15 14 16 17 18 18 19 22 23 24 25 25 26 28 34 30 28 33 29 19 26 35 33 35 37 39 35 33 32 31 32 33 36 38 40 42 44 44
19 18 17 19 21 20 19 18 20 22 24 24 25 26 28 28 29 30 30 31 30 34 31 34 30 32 29 32 35 34 33 32 32 32 33 35 37 39 40 43 44 45 45
20 20 20 20 24 25 25 24 24 25 26 28 29 31 32 32 32 32 30 28 25 24 33 28 31 32 33 32 32 32 33 32 33 34 37 41 44 45 44 46 47 47 46
28 28 27 26 27 27 26 27 27 27 28 30 32 33 30 28 29 31 25 21 27 30 31 32 34 37 34 29 29 30 32 34 36 39 42 45 47 50 52 52 51 49 47
24 23 23 23 21 21 21 22 23 24 26 27 27 27 29 30 23 21 23 26 28 31 30 34 35 31 28 28 29 32 35 39 41 44 47 49 52 53 52 54 52 50 47
17 16 16 15 15 16 19 21 23 24 24 25 26 27 24 23 18 24 28 28 28 33 34 30 29 30 29 30 32 36 40 43 46 48 51 53 55 55 53 53 50 46 44
19 17 16 16 17 18 20 22 22 22 22 22 23 24 23 24 24 25 29 30 31 29 29 29 30 31 32 35 37 40 44 49 50 53 55 56 55 54 51 47 46 43 39
19 17 16 15 17 18 19 19 19 20 21 23 22 22 23 23 24 27 29 27 27 28 28 30 31 34 37 39 42 44 48 51 55 56 57 56 54 51 48 44 40 42 33
19 17 16 17 18 18 19 19 19 21 21 22 22 19 21 26 28 27 26 27 27 28 31 33 35 38 40 43 45 46 48 51 54 56 56 54 52 49 45 41 38 36 33
19 19 18 18 18 19 19 20 20 20 21 20 20 22 27 26 24 25 26 27 29 31 34 36 39 42 44 46 48 49 51 53 54 56 55 53 49 44 40 37 33 32 37
22 20 19 19 20 21 21 21 20 22 21 21 24 27 24 23 25 25 26 29 31 33 36 39 41 44 45 48 50 53 56 57 57 55 52 48 41 35 31 31 29 32 26
23 22 22 22 22 22 23 23 23 23 22 25 26 22 23 24 25 27 29 32 34 36 38 41 42 44 46 48 52 56 57 56 54 52 48 42 31 24 25 20 21 24 25
26 25 24 23 24 24 26 26 26 26 25 22 21 23 24 25 27 30 33 32 35 38 40 42 43 44 47 50 52 53 53 51 48 45 41 32 24 24 23 24 23 16 17

GFSMW_700_spd_072.txt.gz
Wind_Speed
7 3 3 6 11 15 15 19 19 18 18 18 16 19 18 18 17 17 18 18 18 18 20 21 19 19 20 19 17 17 17 17 17 19 24 26 26 27 28 28 25 24 27
13 6 5 6 5 10 15 15 17 17 15 15 14 15 16 16 16 19 19 19 20 20 20 22 21 21 22 22 19 19 20 21 19 21 25 25 31 33 28 29 29 30 28
5 6 6 5 10 12 12 14 14 16 15 15 15 15 16 17 19 18 19 19 19 20 21 23 24 22 25 25 23 24 23 23 23 23 25 28 31 32 31 35 31 29 34
7 9 8 10 10 13 14 12 11 12 15 14 16 17 16 15 15 15 15 17 19 21 23 24 27 27 26 29 27 28 26 26 31 26 27 33 33 32 33 27 33 33 36
12 10 12 11 12 12 12 13 15 17 15 15 15 16 16 16 17 17 15 18 20 22 25 27 28 26 27 29 32 32 29 29 31 33 31 29 34 36 33 28 24 30 37
15 14 12 13 13 14 15 16 17 17 18 17 21 18 17 18 20 20 21 19 19 24 23 31 27 30 34 35 31 36 33 32 31 34 36 35 35 36 31 30 30 36 36
19 19 20 20 18 19 19 19 19 20 21 18 16 18 19 20 23 25 25 21 23 23 21 18 24 32 36 37 41 38 38 35 33 37 37 39 36 36 30 29 33 37 36
22 24 24 27 25 23 23 23 23 23 23 22 19 16 18 20 20 22 22 24 31 26 29 28 31 36 39 42 43 48 41 36 35 39 44 41 38 33 34 33 42 43 44
17 24 29 28 31 28 26 26 25 24 25 24 23 21 20 22 23 24 24 23 22 23 26 30 36 39 40 45 45 34 41 40 36 43 39 33 39 33 31 37 42 45 43
15 14 24 27 31 31 30 26 27 26 26 27 27 27 25 27 28 27 26 26 28 31 33 33 33 33 40 43 39 36 31 35 39 43 40 40 35 38 38 42 41 39 38
6 7 17 22 28 29 30 31 28 28 31 33 34 31 31 32 34 32 30 31 33 32 33 31 29 30 32 29 35 36 32 38 33 41 37 36 35 39 40 39 36 35 36
7 8 7 10 23 25 27 31 29 36 34 35 37 33 37 35 33 34 32 30 31 32 32 32 32 35 28 34 27 34 27 31 31 31 34 35 37 41 42 35 33 33 35
12 12 12 10 15 17 25 33 32 37 28 26 33 34 34 29 30 30 29 29 31 32 33 33 34 31 35 30 36 32 30 29 29 33 34 35 39 36 32 33 34 36 37
11 12 15 15 12 12 18 21 29 29 29 25 29 29 27 29 28 26 28 28 30 32 33 34 33 35 32 35 36 35 29 28 33 36 37 35 32 31 32 33 34 37 40
16 12 13 18 21 21 21 18 20 22 23 24 25 27 27 27 26 27 27 32 33 35 35 35 34 37 37 34 33 29 28 30 33 33 32 31 32 33 34 37 39 40 42
17 16 15 21 25 29 23 22 25 25 27 27 27 29 27 29 27 32 34 35 35 35 36 35 35 35 34 34 31 28 29 30 30 30 31 31 32 33 36 39 42 45 48
26 21 22 29 34 31 26 25 24 28 30 30 30 30 32 32 34 35 37 36 35 33 32 34 32 30 33 30 28 30 30 30 31 31 32 33 34 36 39 42 44 47 49
31 28 30 33 35 34 35 34 29 27 30 31 32 35 35 34 33 33 32 31 31 33 33 30 32 31 33 31 30 30 31 31 32 32 35 38 39 39 42 45 47 50 51
24 23 25 31 36 33 30 25 23 23 23 23 24 26 29 30 29 29 29 30 31 29 29 30 30 32 34 33 29 29 32 34 34 36 37 39 39 40 43 47 51 53 54
21 22 23 24 25 24 20 18 18 19 21 23 24 25 26 26 26 27 28 28 28 29 28 29 30 32 34 33 31 32 34 35 37 38 38 39 41 42 45 49 52 54 52
22 24 24 23 22 21 21 22 22 22 23 24 25 26 26 28 28 28 29 29 28 29 29 31 31 31 35 35 33 31 34 38 39 40 40 40 41 44 46 49 50 51 51
21 23 25 25 24 24 25 25 24 24 25 26 26 27 28 29 29 29 28 28 29 31 31 28 29 31 34 36 35 34 35 39 40 41 42 42 43 45 46 47 47 47 45
23 25 27 27 27 28 28 28 27 26 26 27 27 27 28 29 30 30 28 30 32 30 30 30 31 32 34 36 37 37 39 40 41 42 43 44 44 45 46 46 44 42 38
26 27 29 30 31 31 31 31 29 28 27 28 29 29 30 30 30 30 30 32 29 29 30 31 31 32 34 36 38 40 40 42 42 43 43 44 45 45 46 45 41 37 33
28 29 31 35 35 35 35 33 31 31 31 31 31 31 31 30 30 31 30 28 28 29 30 32 33 33 35 37 39 40 41 42 43 44 45 46 46 46 45 42 38 34 31
29 31 34 38 39 38 36 36 36 36 36 36 35 33 33 33 31 28 26 28 27 28 30 32 34 36 37 38 39 40 40 42 44 45 46 47 46 46 44 42 38 34 29

GFSMW_700_spd_075.txt.gz
Wind_Speed
3 2 7 15 18 24 29 30 30 26 24 25 27 28 31 31 34 33 29 25 25 24 21 20 18 16 16 16 18 19 18 18 18 20 21 23 23 24 24 25 25 25 23
9 4 2 8 13 15 16 18 19 17 17 16 16 17 18 16 15 17 22 26 23 21 21 20 18 19 20 21 21 22 21 22 23 23 25 27 27 27 28 31 28 27 23
4 8 5 6 8 11 12 13 14 14 12 13 15 18 19 20 22 21 20 19 19 19 20 21 20 20 21 23 24 24 25 26 27 28 29 30 31 30 32 31 29 30 27
3 3 8 9 10 9 11 11 12 13 13 12 13 13 12 12 11 10 12 16 18 17 17 20 23 22 23 27 27 24 31 32 35 32 31 33 32 31 34 33 35 35 27
8 3 5 8 10 12 13 13 13 12 13 12 12 13 13 11 12 12 13 14 15 16 16 18 22 24 25 28 31 30 25 35 37 40 34 35 34 34 37 37 33 35 30
12 7 6 10 11 12 13 15 14 14 15 14 14 13 10 12 16 14 14 14 17 17 18 21 22 23 23 31 32 32 32 40 39 43 42 32 35 36 38 39 32 33 29
18 12 11 12 15 16 15 15 14 12 12 13 10 11 12 15 15 19 15 17 18 20 20 20 19 22 23 25 30 33 35 42 44 40 37 40 35 35 40 36 37 36 34
17 16 17 16 13 17 18 19 17 14 16 15 14 14 15 17 19 19 21 19 19 16 18 23 23 24 28 30 34 33 37 43 40 37 41 41 38 36 32 31 34 38 34
14 18 20 22 21 19 16 19 20 18 20 21 20 19 23 20 21 22 22 20 21 19 20 19 25 28 29 30 27 30 32 35 40 35 33 39 35 37 35 36 36 37 38
11 14 19 24 26 26 21 16 13 20 23 25 25 25 25 27 25 26 28 25 23 22 23 26 27 27 27 25 28 26 28 29 31 28 29 36 36 39 37 34 34 38 42
16 18 21 19 25 28 25 22 21 20 23 24 30 31 31 32 32 34 35 27 27 25 28 29 28 28 28 30 30 27 31 27 31 27 29 32 35 33 33 35 37 40 38
11 11 9 22 18 26 30 28 27 28 28 23 25 30 33 38 37 35 38 26 24 29 31 30 30 30 30 30 35 31 30 26 31 31 34 33 31 32 33 36 37 33 33
16 17 17 11 17 20 19 23 26 26 26 26 23 30 28 29 27 28 23 25 27 29 27 29 30 31 32 31 34 34 32 33 34 32 27 28 32 34 34 32 34 33 34
20 19 17 16 13 16 19 22 24 25 26 24 26 27 27 29 25 27 28 28 25 24 27 32 33 34 34 32 34 33 37 35 31 25 26 30 32 31 31 31 32 34 36
14 16 18 19 22 19 17 17 20 21 21 24 25 23 24 24 25 28 27 27 27 29 33 35 37 35 34 34 34 33 34 29 25 26 29 29 29 29 30 34 36 39 41
12 19 24 21 23 23 24 22 22 23 23 23 24 26 27 28 28 29 30 31 31 34 36 37 35 33 34 34 35 30 30 27 27 28 28 28 29 32 34 35 37 40 42
14 20 24 24 28 33 30 28 26 24 26 27 27 29 30 31 32 31 32 33 36 36 33 31 32 33 35 34 29 28 27 28 28 28 28 28 29 33 36 38 39 41 41
18 23 25 29 32 34 34 32 31 30 31 34 31 32 32 32 30 33 35 32 30 30 31 32 35 35 32 27 27 27 28 28 27 28 30 32 33 37 40 41 42 43 42
22 25 25 26 28 28 31 32 34 33 34 29 27 27 29 29 28 29 30 31 30 30 31 33 31 29 28 27 27 28 28 29 29 30 32 35 38 39 41 43 44 45 44
21 21 23 23 23 25 26 28 27 24 21 18 19 21 23 26 27 28 28 28 29 30 30 29 29 28 29 30 29 28 29 30 31 33 35 37 40 41 42 44 45 47 47
19 19 20 21 23 24 24 23 20 19 19 20 21 22 24 25 27 27 27 29 29 28 28 29 30 31 32 31 29 29 31 33 35 35 36 38 40 40 41 43 45 47 48
21 20 20 23 24 24 23 23 22 23 23 23 24 25 26 26 27 29 30 29 29 28 28 29 33 34 33 31 30 31 33 36 36 37 38 39 40 40 41 43 45 45 46
22 24 24 24 25 27 27 26 26 26 25 25 26 27 28 29 29 29 30 31 30 29 29 29 32 32 33 32 33 34 35 37 38 39 40 41 40 41 41 42 44 45 46
23 25 26 25 26 28 30 31 31 31 30 29 29 30 31 31 33 32 32 30 29 30 30 29 28 31 33 33 35 37 38 38 40 40 39 40 41 41 41 43 44 45 45
27 27 28 28 29 30 33 34 35 36 35 33 33 34 34 35 35 32 31 33 32 29 27 28 30 31 32 34 36 38 39 40 41 40 40 41 41 41 42 44 44 44 44
29 30 32 32 33 34 35 38 40 40 39 38 37 37 35 35 36 37 36 32 29 30 29 29 30 31 32 35 37 40 41 41 42 41 42 43 44 44 45 46 46 46 44

GFSMW_700_spd_078.txt.gz
Wind_Speed
8 4 7 12 17 12 12 10 12 19 24 25 22 23 21 28 25 29 41 39 39 35 32 26 24 19 16 15 15 15 15 16 17 19 21 21 23 23 22 23 24 24 23
6 2 5 5 13 17 24 25 25 25 24 21 22 21 22 26 31 34 37 39 38 36 31 27 24 20 19 18 17 18 18 19 21 23 25 28 28 27 26 28 28 29 27
4 2 4 7 8 10 12 16 17 17 20 23 24 26 27 27 28 29 33 35 34 32 25 22 22 20 20 20 20 21 22 22 23 26 30 35 33 32 32 33 32 30 31
1 2 2 5 8 9 10 10 11 13 15 16 18 17 16 18 20 23 25 27 26 24 22 21 21 20 20 19 21 23 24 25 26 26 34 34 39 37 38 35 34 34 33
4 4 4 6 6 7 9 10 10 12 13 14 14 14 13 13 14 17 19 20 21 22 20 20 19 17 17 18 20 25 24 26 33 31 35 36 38 44 41 43 36 36 34
7 6 10 11 10 11 12 13 13 13 11 11 12 13 13 13 14 14 14 16 16 16 17 19 19 20 19 17 21 21 25 25 27 32 33 43 44 38 44 41 39 35 35
15 12 12 11 11 12 13 14 14 13 11 11 13 14 14 15 15 17 15 16 16 16 18 21 23 23 19 22 23 24 25 28 29 29 42 46 40 38 42 39 43 41 31
13 17 13 10 11 14 14 15 15 16 15 14 12 12 16 16 15 16 16 18 20 21 20 23 18 20 21 21 21 24 27 28 26 28 37 33 39 30 29 34 36 40 39
19 15 13 13 13 13 14 15 18 17 18 17 16 16 17 18 18 19 20 21 22 24 25 24 24 23 24 22 22 24 26 22 23 30 33 29 33 25 31 40 38 34 43
15 17 19 18 17 18 16 16 13 17 18 21 21 22 21 23 23 24 27 29 28 32 29 28 28 27 26 25 25 26 26 21 29 29 29 26 28 25 33 39 35 38 39
12 12 16 20 22 21 23 22 19 16 18 18 19 22 23 25 28 31 32 34 38 38 39 32 23 29 28 26 28 27 26 28 29 30 30 27 30 34 37 40 40 37 37
13 13 12 11 16 22 21 25 25 24 21 19 18 22 26 27 27 30 34 36 45 33 21 15 26 26 25 28 30 28 29 31 31 28 31 32 34 36 38 36 34 36 39
13 15 15 13 14 16 19 19 18 21 25 25 26 27 27 29 30 33 29 31 29 18 19 19 24 25 26 31 31 31 33 33 35 32 34 35 36 33 32 36 39 40 39
17 14 18 18 17 16 15 17 17 17 19 22 25 26 27 28 28 30 30 30 27 23 23 23 26 27 30 33 35 35 34 33 32 35 36 36 33 31 34 38 38 37 38
20 18 21 23 20 19 18 15 13 14 16 20 21 23 26 26 24 25 27 27 28 27 26 27 29 32 35 37 37 33 35 30 34 36 35 31 32 33 35 34 35 36 38
22 20 18 19 23 21 22 23 22 22 18 19 23 23 25 26 27 28 30 30 29 29 30 32 35 39 40 40 39 33 32 33 34 32 30 31 32 34 35 36 36 37 39
21 18 15 17 17 23 26 27 27 26 24 22 22 24 26 29 32 32 32 32 33 34 35 38 41 40 36 33 32 32 35 31 29 30 31 33 34 35 35 35 36 39 40
21 17 15 18 21 23 27 29 30 31 32 29 29 31 33 34 36 35 34 35 35 36 37 35 33 30 28 31 32 31 29 30 32 33 32 32 34 36 36 36 38 39 41
14 15 18 21 21 22 23 26 27 29 32 32 34 35 35 32 31 30 31 31 30 31 32 31 29 29 30 30 29 29 30 32 32 32 33 34 35 36 38 40 41 42 42
17 18 22 23 20 21 22 24 25 27 29 33 32 28 26 24 22 23 25 28 30 30 28 28 29 30 30 29 29 30 31 32 31 32 35 35 37 38 40 42 44 45 45
21 19 19 19 18 18 20 23 26 28 29 27 24 24 23 23 24 25 26 28 28 28 29 31 32 33 32 31 31 31 30 30 32 34 35 37 39 41 42 43 45 46 47
17 15 17 18 18 20 21 23 25 26 25 25 26 26 26 26 26 27 29 29 30 31 32 32 33 33 34 32 31 30 31 32 34 35 37 39 41 42 43 43 44 44 46
18 18 20 22 24 23 23 25 25 25 27 28 29 30 29 30 30 31 31 32 33 33 33 34 35 36 34 31 29 30 32 34 36 38 40 41 41 42 43 43 44 45 46
19 22 24 26 26 27 26 28 28 27 30 32 33 34 33 34 34 34 34 33 33 34 36 38 38 36 35 33 34 36 37 36 38 39 41 43 44 44 43 44 45 46 47
23 25 26 28 29 30 31 32 32 31 32 34 36 37 37 37 37 37 37 36 37 39 41 41 39 38 40 38 37 39 39 40 41 41 43 44 45 45 45 46 48 48 48
26 28 28 29 31 32 32 34 35 36 37 36 36 36 37 37 38 39 40 42 46 48 41 39 42 43 43 41 41 40 40 40 43 43 44 46 48 48 48 48 49 49 48